ALOS-4 (DAICHI-4)

Last updated on Thu Nov 21 2024 00:02:28 GMT+0000 (Coordinated Universal Time)

1 60182U 24123A 24325.56431149 .00004547 00000+0 61528-3 0 9992 2 60182 97.9220 59.9697 0001406 101.8136 258.3233 14.79475278 21063
UTC large
Height (km)
Speed (km/s)
/
Latitude / Longitude
Inclination (degrees)
Orbital Period (minutes)
Azimuth
Elevation
Range (km)
Doppler Factor

Next 0 passes for location: London (51.5072 / 0.1276)

Sorry there are no passes over London.